This demonstration page uses our WeatherBlox Daily Observations layout. Learn more.

Left ArrowRight Arrow

34.16533, -84.80231

Hourly Observations for December 24, 2017

Temp ( °F °C ) Dew Point ( °F °C ) Humidity (%) Winds ( mph kmh ) Pressure ( in mb ) Visibility ( mi km ) Precip ( " mm )
12:53 am 00:53 Cloudy 47 8.3 43 6.1 86 86 VRB 3 6 30.06 1018 10 16 0.00 0.00
1:53 am 01:53 Cloudy 47 8.3 43 6.1 86 86 VRB 3 6 30.07 1018 10 16 0.00 0.00
2:24 am 02:24 Cloudy 47 8.3 43 6.1 86 86 VRB 3 6 30.09 1019 10 16 0.00 0.00
2:53 am 02:53 Cloudy 47 8.3 43 6.1 86 86 NNW 3 6 30.06 1018 10 16 0.00 0.00
3:53 am 03:53 Cloudy 46 7.8 43 6.1 89 89 Calm 30.06 1018 10 16 0.00 0.00
4:53 am 04:53 Cloudy 46 7.8 43 6.1 89 89 Calm 30.06 1018 10 16 0.00 0.00
5:53 am 05:53 Cloudy 46 7.8 42 5.6 86 86 VRB 5 7 30.05 1018 10 16 0.00 0.00
6:53 am 06:53 Cloudy 45 7.2 42 5.6 90 90 Calm 30.06 1018 10 16 0.00 0.00
7:53 am 07:53 Cloudy 46 7.8 42 5.6 86 86 Calm 30.08 1019 10 16 0.00 0.00
8:20 am 08:20 Cloudy 46 7.8 43 6.1 89 89 Calm 30.09 1019 10 16 0.00 0.00
8:53 am 08:53 Cloudy 46 7.8 42 5.6 86 86 Calm 30.08 1019 10 16 0.00 0.00
9:53 am 09:53 Cloudy 46 7.8 42 5.6 86 86 Calm 30.08 1019 10 16 0.00 0.00
10:51 am 10:51 Cloudy 46 8 43 6 87 87 VRB 3 6 30.09 1019 10 16 0.00 0.00
10:53 am 10:53 Cloudy 47 8.3 43 6.1 86 86 Calm 30.09 1019 10 16 0.00 0.00
11:25 am 11:25 Cloudy 47 8.3 42 5.6 83 83 VRB 3 6 30.12 1020 10 16 0.00 0.00
11:39 am 11:39 Cloudy 47 8.3 43 6.1 86 86 Calm 30.09 1019 10 16 0.00 0.00
11:53 am 11:53 Cloudy 47 8.3 43 6.1 86 86 VRB 5 7 30.07 1018 10 16 0.00 0.00
12:53 pm 12:53 Cloudy 47 8.3 43 6.1 86 86 VRB 3 6 30.06 1018 10 16 0.00 0.00
1:53 pm 13:53 Cloudy 48 8.9 43 6.1 83 83 VRB 3 6 30.04 1017 10 16 0.00 0.00
2:53 pm 14:53 Cloudy 47 8.3 42 5.6 83 83 VRB 5 7 30.05 1018 10 16 0.00 0.00
3:53 pm 15:53 Cloudy 46 7.8 42 5.6 86 86 VRB 3 6 30.07 1018 10 16 0.00 0.00
4:53 pm 16:53 Cloudy 46 7.8 42 5.6 86 86 VRB 3 6 30.09 1019 10 16 0.00 0.00
5:12 pm 17:12 Cloudy 46 7.8 42 5.6 86 86 VRB 5 7 30.09 1019 10 16 0.00 0.00
5:53 pm 17:53 Cloudy 46 7.8 42 5.6 86 86 VRB 5 7 30.11 1020 10 16 0.00 0.00
6:53 pm 18:53 Cloudy 45 7.2 42 5.6 90 90 Calm 30.14 1021 10 16 0.00 0.00
7:53 pm 19:53 Cloudy 44 6.7 41 5 89 89 VRB 5 7 30.15 1021 10 16 0.00 0.00
8:38 pm 20:38 Cloudy 44 6.7 39 3.9 83 83 undefined N/A 30.18 1022 10 16 0.00 0.00
8:53 pm 20:53 Cloudy 44 6.7 39 3.9 83 83 VRB 5 7 30.17 1022 10 16 0.00 0.00
9:06 pm 21:06 Cloudy 44 6.7 38 3.3 79 79 VRB 3 6 30.18 1022 10 16 0.00 0.00
9:29 pm 21:29 Cloudy 43 6.1 37 2.8 80 80 VRB 3 6 30.18 1022 10 16 0.00 0.00
9:53 pm 21:53 Cloudy 42 5.6 37 2.8 82 82 VRB 3 6 30.19 1023 10 16 0.00 0.00
10:53 pm 22:53 Cloudy 41 5 34 1.1 76 76 Calm 30.21 1023 10 16 0.00 0.00
11:53 pm 23:53 Mostly Clear 39 3.9 32 0 76 76 undefined N/A 30.21 1023 10 16 0.00 0.00

Powered by AerisWeather